User: anonymous   Login
Location: Observatoire
(46.1952°N, 5.3391°E)
Time: 01:14:29
(UTC+02:00)
Language:

PRISM - Orbit

View from above orbital plane
View from above orbital plane
View from above satellite
View from above satellite

Ground track
Ground track

The orbit data is extracted from the following two-line orbital elements,

1 33493U 09002B   24115.66259314  .00033552  00000-0  17128-2 0  9991
2 33493  98.2110 158.7720 0013693  76.6484 283.6273 15.16556202830939
Epoch (UTC): 24 April 2024 15:54:08
Eccentricity: 0.0013693
inclination: 98.2110°
perigee height: 507 km
apogee height: 526 km
right ascension of ascending node: 158.7720°
argument of perigee: 76.6484°
revolutions per day: 15.16556202
mean anomaly at epoch: 283.6273°
orbit number at epoch: 83093

The dashed part of the orbit path shows where the satellite is in the earth's shadow,  

DLR